[[{"header":{"parameterUnit":"m.s-1","parameterCategory":1,"la1":30.2991,"la2":30.254,"lo1":-89.0895,"lo2":-89.0444,"dy":0.0017,"dx":0.0017,"nx":28,"ny":28,"refTime":"2024-06-12T03:00:00:Z","depth":0,"parameterNumber":2,"parameterNumberName":"U-component_of_WINDS"},"data":[0,0,0,0,0,0,0,0,0,0,0,0,0,0,0,0,0,0,0,0,0,0,0,0,0,0,0,0,0,0,0,0,0,0,0,0,0,0,0,0,0,0,0,0,0,0,0,0,0,0,0,0,0,0,0,0,0,0,-0.7917,-0.7918,0,-0.7951,-0.7952,-0.7952,-0.7906,-0.7904,-0.7902,-0.7901,-0.7935,-0.7937,-0.794,0,0,0,0,0,0,0,0,0,0,0,0,0,-0.7811,-0.7813,-0.7917,-0.7918,-0.7918,-0.7951,-0.7952,-0.7952,-0.7906,-0.7904,-0.7902,-0.79,-0.7934,-0.7937,-0.794,0,0,0,0,0,0,0,0,0,0,0,0,0,-0.7852,-0.7814,-0.7917,-0.7899,-0.7898,-0.7951,-0.7952,-0.7952,-0.7906,-0.7904,-0.7901,-0.7899,-0.7933,-0.7937,-0.794,-0.8013,0,0,-0.7952,-0.7953,0,0,0,0,0,0,0,0,-0.785,-0.7856,-0.7901,-0.79,-0.7899,-0.7922,-0.7927,-0.7973,-0.7907,-0.7903,-0.7901,-0.7898,-0.7933,-0.7936,-0.7948,-0.8014,-0.8016,-0.7952,-0.7954,-0.7956,-0.7957,0,0,0,0,0,0,0,-0.7847,-0.7854,-0.7931,-0.7902,-0.7901,-0.7889,-0.7892,-0.7935,-0.7931,-0.7903,-0.79,-0.7905,-0.7931,-0.7945,-0.7948,-0.8016,-0.7952,-0.7955,-0.7957,-0.7959,-0.8143,-0.8145,0,0,0,0,0,0,-0.7846,-0.7852,-0.793,-0.7932,-0.7868,-0.7893,-0.7896,-0.7917,-0.7931,-0.793,-0.7907,-0.7902,-0.7939,-0.7944,-0.7949,-0.8034,-0.7956,-0.7959,-0.7961,-0.814,-0.8143,-0.8146,0,0,0,0,0,0,-0.7844,-0.7854,-0.7928,-0.7891,-0.79,-0.7897,-0.7921,-0.7919,-0.7932,-0.7933,-0.7932,-0.7921,-0.7938,-0.7944,-0.7997,-0.8035,-0.7961,-0.7964,-0.8137,-0.8141,-0.8145,-0.8205,0,0,0,0,0,0,-0.7842,-0.7853,-0.7881,-0.7892,-0.7902,-0.7976,-0.7923,-0.7921,-0.7938,-0.7933,-0.7946,-0.7946,-0.7936,-0.7992,-0.8001,-0.8039,-0.7967,-0.8134,-0.8139,-0.8144,-0.82,-0.8211,-0.822,0,0,0,0,0,-0.7838,-0.7897,-0.7883,-0.7892,-0.7937,-0.7978,-0.7984,-0.7971,-0.7942,-0.7969,-0.797,-0.7946,-0.8029,-0.7998,-0.8007,-0.8047,-0.8131,-0.8137,-0.8143,-0.8195,-0.8209,-0.822,0,0,0,0,0,0,-0.789,-0.7898,-0.7883,-0.7947,-0.7962,-0.797,-0.8005,-0.7986,-0.801,-0.8004,-0.7987,-0.7991,-0.8047,-0.8052,-0.8017,-0.8117,-0.8075,-0.8083,-0.8112,-0.8124,-0.8134,-0.8131,-0.797,0,0,0,0,0,-0.791,-0.7943,-0.7948,-0.8004,-0.8013,-0.8008,-0.8025,-0.8014,-0.8029,-0.8036,-0.804,-0.8056,-0.8085,-0.8105,-0.8132,-0.82,-0.8202,-0.8232,-0.8242,-0.8251,-0.8258,-0.8293,-0.8306,-0.8166,-0.8166,-0.8166,0,0,-0.7949,-0.7958,-0.798,-0.8015,-0.8025,-0.806,-0.8013,-0.8052,-0.8077,-0.8041,-0.8092,-0.8096,-0.8111,-0.8172,-0.8199,-0.8178,-0.8297,-0.8258,-0.8265,-0.8267,-0.83,-0.8314,-0.8326,-0.817,-0.8169,-0.8169,0,0,-0.8039,-0.8049,-0.8097,-0.8108,-0.8125,-0.8121,-0.8133,-0.8144,-0.8145,-0.8195,-0.8169,-0.8198,-0.825,-0.8262,-0.8275,-0.8369,-0.8347,-0.8378,-0.8431,-0.8466,-0.8477,-0.8486,-0.8519,-0.8531,-0.8385,-0.8385,-0.8386,0,-0.8086,-0.8138,-0.8124,-0.8164,-0.818,-0.8149,-0.8197,-0.8209,-0.8233,-0.8245,-0.8221,-0.8284,-0.8293,-0.8356,-0.8378,-0.839,-0.8402,-0.8376,-0.8476,-0.8486,-0.8495,-0.8525,-0.8538,-0.8389,-0.8389,-0.8388,-0.8388,0,-0.8194,-0.8231,-0.8267,-0.8292,-0.8311,-0.8355,-0.8347,-0.8369,-0.8356,-0.8355,-0.8406,-0.8415,-0.8443,-0.8457,-0.8445,-0.8518,-0.8504,-0.8479,-0.8436,-0.8512,-0.854,-0.8552,-0.8394,-0.8393,-0.8392,-0.8391,0,0,-0.8318,-0.8335,-0.8348,-0.8358,-0.8374,-0.8402,-0.8444,-0.8472,-0.849,-0.8508,-0.8542,-0.8587,-0.8563,-0.8578,-0.8567,-0.8597,-0.867,-0.8567,-0.8568,-0.8585,-0.8749,-0.8767,-0.8781,-0.8655,-0.8658,-0.8659,-0.8747,0,-0.8407,-0.8481,-0.8469,-0.8539,-0.8572,-0.8543,-0.8579,-0.8593,-0.8593,-0.862,-0.8619,-0.865,-0.8617,-0.8625,-0.8654,-0.8655,-0.8702,-0.8648,-0.8686,-0.8688,-0.8683,-0.8797,-0.8816,-0.8899,-0.8759,-0.876,-0.8762,0,-0.8521,-0.8543,-0.8617,-0.8627,-0.8641,-0.8674,-0.8698,-0.8724,-0.8739,-0.8736,-0.8752,-0.8736,-0.8777,-0.8734,-0.879,-0.8754,-0.8769,-0.8771,-0.8774,-0.8776,-0.8729,-0.8801,-0.8925,-0.8937,-0.878,-0.8778,-0.8777,0,-0.8603,-0.8651,-0.8701,-0.8711,-0.8725,-0.8749,-0.8755,-0.8767,-0.8784,-0.8805,-0.8816,-0.8842,-0.8855,-0.8875,-0.8865,-0.8835,-0.8923,-0.888,-0.8921,-0.8921,-0.894,-0.8939,-0.9067,-0.8951,-0.8951,-0.8951,-0.8951,0,-0.8703,-0.8749,-0.8738,-0.8769,-0.882,-0.8806,-0.8856,-0.8859,-0.8869,-0.89,-0.8876,-0.8905,-0.8891,-0.8918,-0.8911,-0.8958,-0.8965,-0.8963,-0.896,-0.8965,-0.8965,-0.8974,-0.8967,-0.8954,-0.8954,-0.8953,-0.8952,0,-0.8803,-0.8797,-0.885,-0.8858,-0.8861,-0.8898,-0.8905,-0.8933,-0.8931,-0.897,-0.8978,-0.8974,-0.9006,-0.8998,-0.9032,-0.9027,-0.9086,-0.9076,-0.9081,-0.9079,-0.912,-0.9116,-0.9258,-0.9275,-0.9149,-0.915,-0.9151,0,-0.8867,-0.8901,-0.8913,-0.8932,-0.8941,-0.8971,-0.8989,-0.8976,-0.8995,-0.9014,-0.904,-0.9069,-0.9091,-0.9142,-0.9142,-0.9168,-0.9158,-0.9207,-0.9162,-0.9165,-0.9158,-0.9156,-0.9159,-0.9215,-0.9217,-0.9218,-0.9219,0,-0.898,-0.8976,-0.9002,-0.9027,-0.9049,-0.9068,-0.9085,-0.9101,-0.909,-0.9112,-0.9144,-0.9162,-0.9196,-0.9225,-0.9249,-0.9255,-0.9235,-0.9233,-0.9243,-0.9248,-0.9249,-0.9248,-0.9104,-0.9229,-0.9228,-0.9228,-0.9227,-0.9227,-0.9063,-0.9092,-0.9105,-0.9135,-0.9146,-0.9163,-0.9189,-0.9191,-0.9217,-0.9244,-0.9235,-0.9271,-0.9284,-0.9313,-0.9322,-0.935,-0.9332,-0.9347,-0.9351,-0.9355,-0.936,-0.9245,-0.9354,-0.9354,-0.9354,-0.9353,-0.9353,0,-0.9174,-0.9181,-0.9209,-0.9233,-0.9257,-0.9236,-0.9254,-0.9274,-0.9306,-0.932,-0.9343,-0.9379,-0.9407,-0.9409,-0.9435,-0.9456,-0.9448,-0.9464,-0.9461,-0.9463,-0.9375,-0.9363,-0.947,-0.947,-0.947,-0.947,-0.947,-0.947,-0.9235,-0.9283,-0.928,-0.9333,-0.9339,-0.9375,-0.9387,-0.9401,-0.9412,-0.9453,-0.9476,-0.9478,-0.9487,-0.9513,-0.9537,-0.9537,-0.9547,-0.9566,-0.9563,-0.9481,-0.9469,-0.9458,-0.9446,-0.9569,-0.9569,-0.9648,-0.9648,-0.9649]},{"header":{"parameterUnit":"m.s-1","parameterCategory":1,"la1":30.2991,"la2":30.254,"lo1":-89.0895,"lo2":-89.0444,"dy":0.0017,"dx":0.0017,"nx":28,"ny":28,"refTime":"2024-06-12T03:00:00:Z","depth":0,"parameterNumber":3,"parameterNumberName":"V-component_of_WINDS"},"data":[0,0,0,0,0,0,0,0,0,0,0,0,0,0,0,0,0,0,0,0,0,0,0,0,0,0,0,0,0,0,0,0,0,0,0,0,0,0,0,0,0,0,0,0,0,0,0,0,0,0,0,0,0,0,0,0,0,0,-2.3757,-2.3758,0,-2.3812,-2.3812,-2.3813,-2.3787,-2.3785,-2.3784,-2.3782,-2.3838,-2.3841,-2.3843,0,0,0,0,0,0,0,0,0,0,0,0,0,-2.363,-2.3633,-2.3757,-2.3758,-2.3759,-2.3812,-2.3812,-2.3813,-2.3787,-2.3785,-2.3783,-2.3782,-2.3837,-2.384,-2.3844,0,0,0,0,0,0,0,0,0,0,0,0,0,-2.3685,-2.3633,-2.3757,-2.3752,-2.3752,-2.3811,-2.3812,-2.3813,-2.3787,-2.3785,-2.3783,-2.3781,-2.3836,-2.384,-2.3844,-2.3912,0,0,-2.3857,-2.3859,0,0,0,0,0,0,0,0,-2.3682,-2.369,-2.3752,-2.3752,-2.3752,-2.379,-2.3788,-2.3846,-2.3788,-2.3774,-2.3782,-2.378,-2.3824,-2.3829,-2.3843,-2.3914,-2.3917,-2.3857,-2.386,-2.3861,-2.3863,0,0,0,0,0,0,0,-2.3678,-2.3687,-2.3779,-2.3753,-2.3753,-2.3747,-2.3752,-2.3799,-2.381,-2.3775,-2.3773,-2.378,-2.3823,-2.384,-2.3845,-2.3917,-2.3857,-2.3861,-2.3863,-2.3865,-2.4046,-2.4049,0,0,0,0,0,0,-2.3675,-2.3684,-2.3777,-2.378,-2.3711,-2.3751,-2.3757,-2.378,-2.3809,-2.3812,-2.3782,-2.3778,-2.3833,-2.384,-2.3846,-2.3927,-2.3861,-2.3865,-2.3868,-2.4044,-2.4047,-2.4049,0,0,0,0,0,0,-2.3672,-2.3683,-2.3775,-2.3732,-2.3743,-2.3755,-2.3782,-2.3782,-2.3798,-2.3814,-2.3816,-2.3796,-2.3832,-2.3841,-2.3896,-2.3929,-2.3867,-2.3871,-2.4041,-2.4045,-2.4048,-2.409,0,0,0,0,0,0,-2.3668,-2.3682,-2.3708,-2.3733,-2.3745,-2.3823,-2.3784,-2.3785,-2.3806,-2.3802,-2.3828,-2.3831,-2.3831,-2.389,-2.39,-2.3934,-2.3874,-2.4038,-2.4043,-2.4047,-2.4086,-2.4094,-2.4102,0,0,0,0,0,-2.3664,-2.3718,-2.371,-2.3721,-2.3778,-2.3825,-2.3832,-2.3832,-2.3809,-2.3835,-2.3845,-2.383,-2.3924,-2.3895,-2.3907,-2.3942,-2.4036,-2.4042,-2.4047,-2.4082,-2.4093,-2.4102,0,0,0,0,0,0,-2.3697,-2.3721,-2.3712,-2.3775,-2.3798,-2.3821,-2.3853,-2.3843,-2.3873,-2.3869,-2.3867,-2.3873,-2.393,-2.3942,-2.391,-2.4009,-2.3976,-2.3984,-2.3999,-2.401,-2.4018,-2.4013,-2.3878,0,0,0,0,0,-2.3711,-2.3748,-2.3767,-2.3821,-2.3833,-2.3841,-2.3862,-2.3859,-2.3883,-2.3893,-2.3907,-2.3931,-2.3965,-2.3988,-2.4021,-2.4087,-2.4093,-2.4117,-2.4126,-2.4132,-2.4139,-2.4175,-2.4186,-2.4067,-2.4067,-2.4067,0,0,-2.3741,-2.3759,-2.3782,-2.3828,-2.3845,-2.3883,-2.385,-2.3891,-2.3919,-2.3899,-2.3952,-2.3963,-2.3989,-2.405,-2.4078,-2.4062,-2.4173,-2.4139,-2.4144,-2.4147,-2.4181,-2.4192,-2.4202,-2.407,-2.407,-2.4069,0,0,-2.3816,-2.3833,-2.388,-2.3898,-2.3926,-2.3931,-2.3942,-2.3966,-2.3973,-2.4026,-2.4012,-2.4045,-2.4105,-2.4125,-2.4142,-2.4225,-2.4212,-2.4236,-2.4278,-2.4313,-2.4322,-2.4331,-2.436,-2.437,-2.4242,-2.4242,-2.4242,0,-2.385,-2.3906,-2.3905,-2.3948,-2.3968,-2.3952,-2.3999,-2.4017,-2.4054,-2.4068,-2.405,-2.4125,-2.4142,-2.4207,-2.4227,-2.4242,-2.4255,-2.4232,-2.4321,-2.4329,-2.4337,-2.4365,-2.4376,-2.4245,-2.4245,-2.4244,-2.4244,0,-2.3947,-2.3986,-2.4021,-2.4056,-2.4081,-2.4125,-2.4131,-2.4156,-2.4151,-2.4159,-2.4213,-2.4233,-2.4269,-2.4285,-2.4281,-2.4349,-2.4339,-2.4321,-2.4288,-2.4351,-2.4377,-2.4388,-2.4249,-2.4248,-2.4247,-2.4246,0,0,-2.4042,-2.4077,-2.409,-2.4106,-2.4135,-2.4166,-2.421,-2.4246,-2.4267,-2.4293,-2.4329,-2.4381,-2.4365,-2.4385,-2.4383,-2.4414,-2.4478,-2.4393,-2.4393,-2.4407,-2.4555,-2.4567,-2.458,-2.447,-2.4472,-2.4474,-2.4552,0,-2.4118,-2.4195,-2.4196,-2.4267,-2.4303,-2.4289,-2.4327,-2.4349,-2.4358,-2.439,-2.4399,-2.4435,-2.4411,-2.4423,-2.4453,-2.4464,-2.4507,-2.4458,-2.4504,-2.4506,-2.4497,-2.4593,-2.4607,-2.468,-2.4563,-2.4564,-2.4566,0,-2.4217,-2.4246,-2.4321,-2.4345,-2.436,-2.4395,-2.4428,-2.4459,-2.4483,-2.4487,-2.451,-2.4504,-2.4549,-2.4515,-2.4577,-2.4543,-2.4562,-2.4571,-2.4573,-2.4577,-2.4539,-2.4599,-2.4703,-2.4714,-2.4582,-2.458,-2.4579,0,-2.4279,-2.4337,-2.4389,-2.4403,-2.4433,-2.4457,-2.4471,-2.4494,-2.4515,-2.4544,-2.4558,-2.4592,-2.4611,-2.4637,-2.4641,-2.4616,-2.4703,-2.4669,-2.4707,-2.4707,-2.4725,-2.4724,-2.4834,-2.4739,-2.4739,-2.4738,-2.4738,0,-2.4363,-2.4409,-2.4417,-2.4449,-2.45,-2.4501,-2.4551,-2.4563,-2.4583,-2.4617,-2.4608,-2.464,-2.4642,-2.4675,-2.4678,-2.4729,-2.4738,-2.4742,-2.4742,-2.4742,-2.4742,-2.4754,-2.4749,-2.4741,-2.4741,-2.474,-2.474,0,-2.444,-2.4447,-2.4503,-2.4527,-2.4534,-2.4571,-2.4591,-2.4621,-2.4629,-2.4672,-2.4682,-2.4694,-2.4733,-2.4739,-2.4784,-2.4786,-2.4847,-2.4842,-2.4838,-2.4837,-2.4875,-2.4871,-2.4995,-2.5012,-2.4907,-2.4908,-2.4909,0,-2.4493,-2.4528,-2.4556,-2.4578,-2.4593,-2.4628,-2.465,-2.4652,-2.4676,-2.4707,-2.4734,-2.4772,-2.4802,-2.4864,-2.4877,-2.4911,-2.4907,-2.4948,-2.4912,-2.4912,-2.4907,-2.4905,-2.4908,-2.4955,-2.4956,-2.4957,-2.4958,0,-2.4586,-2.4588,-2.4621,-2.4654,-2.4681,-2.4708,-2.4733,-2.4752,-2.4757,-2.4784,-2.4823,-2.4847,-2.4893,-2.4931,-2.4965,-2.4979,-2.497,-2.4969,-2.498,-2.498,-2.4977,-2.4979,-2.4857,-2.4966,-2.4965,-2.4965,-2.4964,-2.4964,-2.4653,-2.4683,-2.4707,-2.4744,-2.4763,-2.4787,-2.4817,-2.4828,-2.4861,-2.4899,-2.4898,-2.4942,-2.4966,-2.5011,-2.5028,-2.5062,-2.5048,-2.5064,-2.5067,-2.5071,-2.5074,-2.4972,-2.5068,-2.5068,-2.5068,-2.5067,-2.5067,0,-2.4745,-2.476,-2.4793,-2.4829,-2.4858,-2.4847,-2.4874,-2.4899,-2.4937,-2.4961,-2.4991,-2.5036,-2.5072,-2.5088,-2.5124,-2.5148,-2.5145,-2.5158,-2.5156,-2.5159,-2.5084,-2.5072,-2.516,-2.516,-2.516,-2.516,-2.516,-2.516,-2.4796,-2.4847,-2.4852,-2.4913,-2.4927,-2.4969,-2.4986,-2.5008,-2.5027,-2.5078,-2.5108,-2.5119,-2.5139,-2.5177,-2.521,-2.5214,-2.5227,-2.5242,-2.5244,-2.5174,-2.5164,-2.5155,-2.5143,-2.5245,-2.5245,-2.5315,-2.5316,-2.5316]}]]